CW5917 Weather Reports


Display with metric or nautical units.
time (UTC)temp
F
wind
direction
speed
MPH
gust
MPH
rain 1hr
in
rain 24hr
in
rain mn
in
humidity
%
barometer
mb
20260505092520 46 323 6.0 10.0 0.00 0.00 0.00 51 1007.1
20260505092036 46 296 5.0 8.0 0.00 0.00 0.00 50 1007.2
20260505091535 46 301 5.0 8.0 0.00 0.00 0.00 50 1007.3
20260505091032 46 310 4.0 12.0 0.00 0.00 0.00 49 1007.0
20260505090526 46 299 6.0 12.0 0.00 0.00 0.00 49 1007.3
20260505090032 46 313 6.0 14.0 0.00 0.00 0.00 49 1007.3
20260505085524 46 302 8.0 15.0 0.00 0.00 0.00 48 1007.4
20260505085021 46 296 8.0 15.0 0.00 0.00 0.00 48 1007.4
20260505084548 46 310 7.0 14.0 0.00 0.00 0.00 48 1007.1
20260505084022 47 312 9.0 13.0 0.00 0.00 0.00 48 1006.9
20260505083518 47 279 5.0 9.0 0.00 0.00 0.00 49 1006.6
20260505083032 47 294 5.0 9.0 0.00 0.00 0.00 49 1006.4
20260505082521 47 308 6.0 10.0 0.00 0.00 0.00 48 1006.1
20260505082038 47 304 6.0 16.0 0.00 0.00 0.00 48 1006.1
20260505081527 47 312 8.0 16.0 0.00 0.00 0.00 47 1006.2
20260505081021 48 300 8.0 14.0 0.00 0.00 0.00 47 1006.1
20260505080518 48 327 7.0 14.0 0.00 0.00 0.00 47 1005.9
20260505080033 48 307 9.0 19.0 0.00 0.00 0.00 47 1005.9
20260505075558 48 270 10.0 20.0 0.00 0.00 0.00 47 1005.8
20260505075034 48 316 11.0 17.0 0.00 0.00 0.00 48 1005.7
20260505074534 48 320 11.0 18.0 0.00 0.00 0.00 47 1005.7
20260505074031 48 323 12.0 18.0 0.00 0.00 0.00 47 1005.6
20260505073536 49 306 11.0 18.0 0.00 0.00 0.00 47 1005.5
20260505073035 49 327 9.0 18.0 0.00 0.00 0.00 47 1005.1
20260505072520 49 325 10.0 17.0 0.00 0.00 0.00 47 1004.8
20260505072036 49 309 8.0 23.0 0.00 0.00 0.00 47 1004.7
20260505071522 49 323 11.0 21.0 0.00 0.00 0.00 48 1004.9
20260505071038 49 351 9.0 26.0 0.00 0.00 0.00 48 1004.8
20260505070519 49 9 10.0 17.0 0.00 0.00 0.00 48 1004.9
20260505070032 50 305 9.0 17.0 0.00 0.00 0.00 48 1004.9
20260505065545 50 360 9.0 16.0 0.00 0.00 0.00 49 1005.0
20260505065044 50 319 8.0 16.0 0.00 0.00 0.00 50 1004.9
20260505064531 50 355 6.0 15.0 0.00 0.00 0.00 49 1004.8
20260505064023 51 5 7.0 16.0 0.00 0.00 0.00 48 1004.5
20260505063519 51 342 10.0 16.0 0.00 0.00 0.00 48 1004.3
20260505063047 51 343 10.0 19.0 0.00 0.00 0.00 47 1004.3
20260505062542 51 317 13.0 19.0 0.00 0.00 0.00 47 1004.4
20260505062058 51 307 11.0 27.0 0.00 0.00 0.00 47 1004.4
20260505061528 52 326 12.0 27.0 0.00 0.00 0.00 48 1004.4
20260505061023 52 324 10.0 19.0 0.00 0.00 0.00 49 1004.0
20260505060518 52 340 11.0 19.0 0.00 0.00 0.00 49 1004.0
20260505060036 52 309 11.0 15.0 0.00 0.00 0.00 49 1003.9
20260505055546 53 338 9.0 15.0 0.00 0.00 0.00 49 1003.9
20260505055021 53 322 10.0 16.0 0.00 0.00 0.00 48 1003.8
20260505054553 53 296 9.0 15.0 0.00 0.00 0.00 48 1003.7
20260505054026 53 319 8.0 18.0 0.00 0.00 0.00 47 1003.7
20260505053522 53 300 9.0 18.0 0.00 0.00 0.00 47 1003.6
20260505053022 54 319 6.0 15.0 0.00 0.00 0.00 47 1003.7
20260505052528 54 303 9.0 15.0 0.00 0.00 0.00 46 1003.5
20260505052020 54 319 10.0 18.0 0.00 0.00 0.00 46 1003.6
20260505051518 54 299 11.0 18.0 0.00 0.00 0.00 45 1003.5
20260505051036 54 305 10.0 17.0 0.00 0.00 0.00 45 1003.4
20260505050525 54 323 10.0 15.0 0.00 0.00 0.00 45 1003.4
20260505041528 56 312 9.0 13.0 0.00 0.00 0.00 41 1002.7
20260505041021 56 296 8.0 13.0 0.00 0.00 0.00 41 1002.6
20260505040534 56 298 6.0 14.0 0.00 0.00 0.00 41 1002.6
20260505040033 56 317 8.0 14.0 0.00 0.00 0.00 40 1002.6
20260505035530 56 309 8.0 14.0 0.00 0.00 0.00 39 1002.6
20260505035049 57 309 6.0 9.0 0.00 0.00 0.00 39 1002.8
20260505034548 57 306 3.0 7.0 0.00 0.00 0.00 38 1002.7
20260505034033 57 277 3.0 7.0 0.00 0.00 0.00 38 1002.7
20260505033558 57 302 4.0 8.0 0.00 0.00 0.00 38 1002.7
20260505033036 57 269 4.0 10.0 0.00 0.00 0.00 37 1002.5
20260505032528 58 300 5.0 12.0 0.00 0.00 0.00 37 1002.5
20260505032039 58 287 7.0 13.0 0.00 0.00 0.00 37 1002.5
20260505031533 58 291 6.0 13.0 0.00 0.00 0.00 36 1002.5
20260505031020 58 269 6.0 16.0 0.00 0.00 0.00 36 1002.3
20260505030555 58 277 8.0 16.0 0.00 0.00 0.00 35 1002.2
20260505030023 59 293 8.0 14.0 0.00 0.00 0.00 35 1002.1
20260505025027 59 286 8.0 18.0 0.00 0.00 0.00 34 1002.1
20260505024523 59 282 10.0 20.0 0.00 0.00 0.00 34 1002.1
20260505024046 60 295 9.0 20.0 0.00 0.00 0.00 33 1001.9
20260505023523 60 248 10.0 20.0 0.00 0.00 0.00 33 1001.7
20260505023045 60 314 10.0 18.0 0.00 0.00 0.00 33 1001.7
20260505022559 60 279 10.0 18.0 0.00 0.00 0.00 32 1001.5
20260505022137 60 295 10.0 21.0 0.00 0.00 0.00 32 1001.3
20260505021529 61 309 11.0 21.0 0.00 0.00 0.00 31 1001.2
20260505021023 61 313 12.0 23.0 0.00 0.00 0.00 32 1000.9
20260505020538 61 306 13.0 23.0 0.00 0.00 0.00 32 1000.5
20260505020024 61 306 8.0 18.0 0.00 0.00 0.00 33 1000.4
20260505015519 62 254 9.0 18.0 0.00 0.00 0.00 33 1000.4
20260505015045 62 298 7.0 22.0 0.00 0.00 0.00 32 1000.4
20260505014527 62 306 13.0 22.0 0.00 0.00 0.00 32 1000.3
20260505014035 62 325 15.0 22.0 0.00 0.00 0.00 32 1000.3
20260505013533 63 319 14.0 23.0 0.00 0.00 0.00 32 1000.2
20260505013028 63 311 15.0 23.0 0.00 0.00 0.00 33 1000.1
20260505012524 64 309 17.0 23.0 0.00 0.00 0.00 33 999.9
20260505012031 64 302 12.0 25.0 0.00 0.00 0.00 33 1000.0
20260505011531 64 301 17.0 27.0 0.00 0.00 0.00 33 1000.0
20260505011025 65 296 20.0 27.0 0.00 0.00 0.00 32 1000.0
20260505010522 65 331 16.0 26.0 0.00 0.00 0.00 33 999.8
20260505010035 66 300 15.0 23.0 0.00 0.00 0.00 34 999.9
20260505005548 66 290 12.0 21.0 0.00 0.00 0.00 33 999.5
20260505005021 67 281 14.0 21.0 0.00 0.00 0.00 32 999.3
20260505004033 67 301 17.0 28.0 0.00 0.00 0.00 32 999.0
20260505003536 68 304 15.0 25.0 0.00 0.00 0.00 32 998.7
20260505003032 69 300 19.0 25.0 0.00 0.00 0.00 31 998.5
20260505002526 69 276 13.0 27.0 0.00 0.00 0.00 32 998.2
20260505002021 70 288 18.0 27.0 0.00 0.00 0.00 31 998.2
20260505001521 70 302 15.0 23.0 0.00 0.00 0.00 31 998.1
20260505001034 71 290 14.0 20.0 0.00 0.00 0.00 31 998.1
20260505000523 71 290 12.0 23.0 0.00 0.00 0.00 31 998.1
20260505000034 72 299 17.0 24.0 0.00 0.00 0.00 30 998.0
20260504235542 72 307 16.0 24.0 0.00 0.00 0.00 30 997.9
20260504235022 73 300 14.0 23.0 0.00 0.00 0.00 31 998.0
20260504234522 73 297 12.0 22.0 0.00 0.00 0.00 32 997.9
20260504234035 74 287 11.0 26.0 0.00 0.00 0.00 33 997.8
20260504233547 74 300 17.0 26.0 0.00 0.00 0.00 33 997.6
20260504233021 75 326 18.0 26.0 0.00 0.00 0.00 32 997.6
20260504232536 76 321 17.0 26.0 0.00 0.00 0.00 33 997.5
20260504232020 76 303 14.0 21.0 0.00 0.00 0.00 33 997.3
20260504231539 76 252 13.0 24.0 0.00 0.00 0.00 33 997.3
20260504231050 77 247 14.0 24.0 0.00 0.00 0.00 33 997.2
20260504230521 77 297 15.0 24.0 0.00 0.00 0.00 33 997.1
20260504230026 77 287 17.0 31.0 0.00 0.00 0.00 33 997.2
20260504225523 78 273 18.0 31.0 0.00 0.00 0.00 33 997.2
20260504225055 78 271 14.0 24.0 0.00 0.00 0.00 34 997.1
20260504224534 78 296 15.0 24.0 0.00 0.00 0.00 33 996.9
20260504224038 79 220 17.0 24.0 0.00 0.00 0.00 31 997.0
20260504223532 79 271 15.0 24.0 0.00 0.00 0.00 30 997.0
20260504223021 79 269 12.0 27.0 0.00 0.00 0.00 30 997.0
20260504222524 79 299 11.0 27.0 0.00 0.00 0.00 31 997.0
20260504222037 79 270 10.0 20.0 0.00 0.00 0.00 32 996.9
20260504221524 78 248 13.0 24.0 0.00 0.00 0.00 32 996.8
20260504221021 78 254 15.0 22.0 0.00 0.00 0.00 32 996.9
20260504220557 78 299 14.0 20.0 0.00 0.00 0.00 32 996.9
20260504220036 77 249 9.0 24.0 0.00 0.00 0.00 32 997.0
20260504215522 77 331 16.0 26.0 0.00 0.00 0.00 31 997.0
20260504215033 77 234 13.0 24.0 0.00 0.00 0.00 32 997.0
20260504214534 77 244 12.0 23.0 0.00 0.00 0.00 31 997.0
20260504214050 77 292 14.0 23.0 0.00 0.00 0.00 30 997.0
20260504213544 77 244 15.0 25.0 0.00 0.00 0.00 31 997.0
20260504213024 78 246 13.0 21.0 0.00 0.00 0.00 31 997.0
20260504212533 78 235 13.0 24.0 0.00 0.00 0.00 30 997.1
20260504212038 79 242 14.0 30.0 0.00 0.00 0.00 30 997.0
20260504211519 80 219 17.0 23.0 0.00 0.00 0.00 29 997.0
20260504211033 80 219 15.0 23.0 0.00 0.00 0.00 30 997.1
20260504210530 79 238 19.0 28.0 0.00 0.00 0.00 31 997.0
20260504210024 79 207 14.0 28.0 0.00 0.00 0.00 30 997.2
20260504205534 79 236 18.0 28.0 0.00 0.00 0.00 30 997.2
20260504205059 79 286 13.0 28.0 0.00 0.00 0.00 30 997.3
20260504204540 79 238 18.0 28.0 0.00 0.00 0.00 30 997.3
20260504204034 79 228 16.0 24.0 0.00 0.00 0.00 31 997.4
20260504203534 79 245 14.0 26.0 0.00 0.00 0.00 33 997.4
20260504203038 79 226 16.0 26.0 0.00 0.00 0.00 32 997.4
20260504202532 78 241 15.0 25.0 0.00 0.00 0.00 33 997.4
20260504202026 78 241 13.0 21.0 0.00 0.00 0.00 33 997.6
20260504201545 78 263 13.0 23.0 0.00 0.00 0.00 33 997.6
20260504201035 79 250 14.0 28.0 0.00 0.00 0.00 32 997.7
20260504200558 79 241 18.0 28.0 0.00 0.00 0.00 32 997.8
20260504200023 80 240 20.0 29.0 0.00 0.00 0.00 30 997.7
20260504195533 80 229 17.0 29.0 0.00 0.00 0.00 30 997.8
20260504195027 80 246 14.0 29.0 0.00 0.00 0.00 31 997.7
20260504194535 80 240 17.0 30.0 0.00 0.00 0.00 31 997.8
20260504193555 80 236 14.0 27.0 0.00 0.00 0.00 32 998.0
20260504193033 80 230 16.0 27.0 0.00 0.00 0.00 31 997.9
20260504192528 80 221 16.0 28.0 0.00 0.00 0.00 31 998.0
20260504192041 80 242 20.0 29.0 0.00 0.00 0.00 30 997.9
20260504191536 80 234 19.0 29.0 0.00 0.00 0.00 32 998.1
20260504191100 79 246 16.0 26.0 0.00 0.00 0.00 31 998.1
20260504190525 79 228 19.0 26.0 0.00 0.00 0.00 32 998.2
20260504190020 79 271 14.0 24.0 0.00 0.00 0.00 32 998.3
20260504185522 79 237 15.0 24.0 0.00 0.00 0.00 31 998.3
20260504185033 78 300 15.0 29.0 0.00 0.00 0.00 32 998.3
20260504184532 78 221 21.0 32.0 0.00 0.00 0.00 31 998.4
20260504184028 79 228 18.0 32.0 0.00 0.00 0.00 30 998.5
20260504183521 78 255 12.0 26.0 0.00 0.00 0.00 32 998.4
20260504183027 78 223 15.0 28.0 0.00 0.00 0.00 31 998.3
20260504182543 78 222 18.0 28.0 0.00 0.00 0.00 31 998.4
20260504182039 78 200 20.0 31.0 0.00 0.00 0.00 29 998.4
20260504181538 78 301 15.0 25.0 0.00 0.00 0.00 32 998.4
20260504181022 77 242 14.0 27.0 0.00 0.00 0.00 33 998.4
20260504180536 75 193 15.0 27.0 0.00 0.00 0.00 35 998.5
20260504180025 75 223 16.0 31.0 0.00 0.00 0.00 33 998.4
20260504175525 76 246 18.0 31.0 0.00 0.00 0.00 32 998.4
20260504175020 77 214 21.0 31.0 0.00 0.00 0.00 30 998.5
20260504174530 78 230 20.0 30.0 0.00 0.00 0.00 30 998.4
20260504174039 77 226 19.0 28.0 0.00 0.00 0.00 30 998.4
20260504173554 77 192 17.0 28.0 0.00 0.00 0.00 31 998.6
20260504173028 77 219 20.0 28.0 0.00 0.00 0.00 29 998.4
20260504172522 77 242 15.0 24.0 0.00 0.00 0.00 31 998.5
20260504172022 77 226 16.0 27.0 0.00 0.00 0.00 30 998.5
20260504171545 76 227 22.0 27.0 0.00 0.00 0.00 30 998.4
20260504171036 77 221 21.0 29.0 0.00 0.00 0.00 30 998.6
20260504170548 77 227 18.0 30.0 0.00 0.00 0.00 33 998.6
20260504151022 71 215 17.0 22.0 0.00 0.00 0.00 34 1000.3
20260504150518 70 216 13.0 25.0 0.00 0.00 0.00 36 1000.5
20260504141036 66 234 12.0 17.0 0.00 0.01 0.00 41 1001.2
20260504140518 65 219 12.0 16.0 0.00 0.01 0.00 42 1001.3
20260504130541 56 236 8.0 14.0 0.00 0.02 0.00 57 1001.9
20260504110526 49 223 4.0 8.0 0.00 0.02 0.00 62 1002.1
20260504100519 51 227 5.0 7.0 0.00 0.02 0.00 59 1002.4